contact:dominique.lefevre@mio.osupytheas.fr, maurice.libes@osupytheas.fr, didier.mallarino@osupytheas.fr
Project:EMSO http://www.emso-fr.org/EMSO-France
Depth: 2436.0 m
Title:EMSO Ligure Ouest : Data MII capteur AQUADOPP
Date,Latitude,Longitude,X_East,Y_North,Z_Up,Amplitude_X,Amplitude_Y,Amplitude_Z,Batterie,SoundSpeed,Heading,Pitch,Roll,Pressure,TIS,Speed,Direction
, degrees North, degrees East, m.s-1, m.s-1,m.s-1, 1, 1, 1, Volt, m.s-1, degree, degree, degree, dbar, degree_C, m.s-1, degree
2020-12-16T00:04:03,42.805,6.029,-0.054,-0.008,-0.034,103.0,106.0,100.0,13.4,1505.3,326.3,-0.7,1.8,2470.522,13.31,0.054,261.6
2020-12-16T00:07:03,42.805,6.029,-0.049,-0.012,-0.008,102.0,107.0,100.0,13.4,1505.3,327.0,-0.7,1.8,2470.492,13.32,0.05,256.2
2020-12-16T00:10:03,42.805,6.029,-0.013,0.001,0.025,102.0,106.0,100.0,13.4,1505.3,324.4,-0.7,1.8,2470.492,13.32,0.013,274.4
2020-12-16T00:13:03,42.805,6.029,-0.068,0.016,-0.029,103.0,107.0,99.0,13.3,1505.3,326.4,-0.7,1.8,2470.515,13.33,0.069,283.2
2020-12-16T00:16:03,42.805,6.029,-0.025,-0.022,-0.007,102.0,107.0,99.0,13.3,1505.3,324.5,-0.7,1.8,2470.487,13.33,0.033,228.7
2020-12-16T00:19:03,42.805,6.029,0.002,-0.014,0.019,102.0,106.0,100.0,13.4,1505.3,327.5,-0.7,1.8,2470.448,13.33,0.014,171.9
2020-12-16T00:22:03,42.805,6.029,-0.001,-0.015,-0.002,102.0,105.0,100.0,13.3,1505.3,323.7,-0.7,1.8,2470.47,13.33,0.015,183.8
2020-12-16T00:25:03,42.805,6.029,-0.039,0.001,0.033,101.0,106.0,100.0,13.4,1505.3,327.1,-0.7,1.8,2470.465,13.33,0.039,271.5
2020-12-16T00:28:03,42.805,6.029,0.0,0.007,0.034,103.0,105.0,99.0,13.4,1505.3,322.9,-0.7,1.8,2470.453,13.33,0.007,0.0
2020-12-16T00:31:03,42.805,6.029,0.0,-0.014,-0.01,101.0,106.0,99.0,13.4,1505.3,326.1,-0.7,1.8,2470.444,13.33,0.014,180.0
2020-12-16T00:34:03,42.805,6.029,-0.023,-0.014,0.015,101.0,106.0,100.0,13.3,1505.3,324.1,-0.7,1.8,2470.427,13.33,0.026,238.7
2020-12-16T00:37:03,42.805,6.029,0.004,-0.001,0.012,103.0,107.0,99.0,13.3,1505.3,327.5,-0.7,1.8,2470.448,13.33,0.004,104.0
2020-12-16T00:40:03,42.805,6.029,-0.014,-0.011,0.033,103.0,106.0,100.0,13.3,1505.3,323.2,-0.7,1.8,2470.457,13.33,0.017,231.8
2020-12-16T00:43:03,42.805,6.029,-0.032,0.0,-0.001,102.0,105.0,99.0,13.4,1505.3,325.6,-0.7,1.8,2470.418,13.33,0.032,270.0
2020-12-16T00:46:03,42.805,6.029,-0.055,-0.006,0.006,101.0,107.0,100.0,13.4,1505.3,325.5,-0.7,1.8,2470.455,13.33,0.055,263.8
2020-12-16T00:49:03,42.805,6.029,0.017,-0.019,0.05,102.0,107.0,100.0,13.4,1505.3,322.6,-0.7,1.8,2470.458,13.33,0.025,138.2
2020-12-16T00:52:03,42.805,6.029,-0.019,-0.012,-0.001,101.0,105.0,100.0,13.4,1505.3,325.4,-0.7,1.8,2470.439,13.33,0.022,237.7
2020-12-16T00:55:03,42.805,6.029,-0.034,-0.018,-0.027,101.0,108.0,100.0,13.4,1505.3,325.1,-0.7,1.8,2470.467,13.33,0.038,242.1
2020-12-16T00:58:03,42.805,6.029,-0.032,-0.026,-0.01,102.0,107.0,100.0,13.4,1505.3,325.5,-0.7,1.8,2470.46,13.33,0.041,230.9
2020-12-16T01:04:03,42.805,6.029,-0.001,-0.018,0.055,103.0,108.0,100.0,13.4,1505.3,324.5,-0.7,1.8,2470.503,13.31,0.018,183.2
2020-12-16T01:07:03,42.805,6.029,-0.041,-0.001,-0.011,102.0,106.0,100.0,13.3,1505.3,327.2,-0.7,1.8,2470.486,13.32,0.041,268.6
2020-12-16T01:10:03,42.805,6.029,-0.039,-0.018,-0.016,102.0,106.0,101.0,13.4,1505.3,326.4,-0.7,1.8,2470.455,13.32,0.042,245.2
2020-12-16T01:13:03,42.805,6.029,0.006,0.0,0.038,101.0,107.0,100.0,13.4,1505.3,323.5,-0.7,1.9,2470.406,13.33,0.006,90.0
2020-12-16T01:16:03,42.805,6.029,-0.066,-0.032,-0.018,102.0,105.0,100.0,13.4,1505.3,323.6,-0.7,1.8,2470.393,13.33,0.073,244.1
2020-12-16T01:19:03,42.805,6.029,-0.019,-0.023,-0.018,102.0,106.0,100.0,13.4,1505.3,323.2,-0.7,1.8,2470.475,13.33,0.029,219.6
2020-12-16T01:22:03,42.805,6.029,-0.006,-0.013,0.033,103.0,106.0,100.0,13.4,1505.3,323.9,-0.7,1.8,2470.412,13.33,0.014,204.8
2020-12-16T01:28:03,42.805,6.029,0.015,-0.023,0.041,104.0,106.0,100.0,13.4,1505.3,326.8,-0.8,1.8,2470.48,13.31,0.027,146.9
2020-12-16T01:31:03,42.805,6.029,-0.034,-0.014,-0.015,100.0,108.0,99.0,13.4,1505.3,326.5,-0.7,1.8,2470.481,13.32,0.036,247.6
2020-12-16T01:34:03,42.805,6.029,-0.023,-0.013,-0.001,100.0,106.0,101.0,13.4,1505.3,324.2,-0.7,1.8,2470.465,13.32,0.026,240.5
2020-12-16T01:37:03,42.805,6.029,0.0,0.003,0.013,101.0,108.0,100.0,13.4,1505.3,323.8,-0.7,1.8,2470.429,13.32,0.003,0.0
2020-12-16T01:40:03,42.805,6.029,-0.034,-0.008,0.027,102.0,106.0,100.0,13.4,1505.3,326.4,-0.7,1.8,2470.455,13.33,0.034,256.8
2020-12-16T01:43:03,42.805,6.029,0.005,-0.01,0.026,101.0,107.0,99.0,13.4,1505.3,328.4,-0.7,1.8,2470.422,13.33,0.011,153.4
2020-12-16T01:46:03,42.805,6.029,-0.035,-0.002,-0.005,102.0,107.0,100.0,13.4,1505.3,327.6,-0.7,1.9,2470.424,13.33,0.035,266.7
2020-12-16T01:49:03,42.805,6.029,-0.02,-0.015,-0.01,102.0,107.0,100.0,13.3,1505.3,327.4,-0.7,1.8,2470.407,13.33,0.025,233.1
2020-12-16T01:52:03,42.805,6.029,-0.021,0.013,0.014,102.0,107.0,100.0,13.3,1505.3,324.9,-0.7,1.8,2470.429,13.33,0.024,301.8
2020-12-16T01:55:03,42.805,6.029,-0.058,-0.015,-0.014,102.0,108.0,100.0,13.4,1505.3,326.4,-0.6,1.8,2470.461,13.33,0.059,255.5
2020-12-16T01:58:03,42.805,6.029,-0.041,0.0,-0.007,101.0,104.0,99.0,13.4,1505.3,324.3,-0.7,1.8,2470.44,13.33,0.041,270.0
2020-12-16T02:04:03,42.805,6.029,-0.051,-0.03,-0.009,101.0,105.0,100.0,13.3,1505.3,323.8,-0.7,1.8,2470.477,13.31,0.059,239.5
2020-12-16T02:07:03,42.805,6.029,0.014,0.01,0.013,103.0,106.0,101.0,13.4,1505.3,325.8,-0.7,1.8,2470.451,13.32,0.017,54.5
2020-12-16T02:10:03,42.805,6.029,-0.032,0.0,0.008,102.0,106.0,100.0,13.4,1505.3,327.0,-0.7,1.9,2470.461,13.32,0.032,270.0
2020-12-16T02:13:03,42.805,6.029,-0.047,0.001,0.021,101.0,106.0,100.0,13.3,1505.3,328.1,-0.7,1.9,2470.424,13.32,0.047,271.2
2020-12-16T02:16:03,42.805,6.029,0.007,-0.002,0.052,102.0,105.0,101.0,13.4,1505.3,326.2,-0.7,1.8,2470.478,13.33,0.007,105.9
2020-12-16T02:19:03,42.805,6.029,-0.016,0.009,0.067,101.0,108.0,99.0,13.4,1505.3,325.6,-0.7,1.8,2470.445,13.33,0.018,299.4
2020-12-16T02:22:03,42.805,6.029,-0.048,-0.018,-0.013,103.0,106.0,99.0,13.3,1505.3,323.5,-0.7,1.8,2470.412,13.33,0.051,249.4
2020-12-16T02:25:03,42.805,6.029,-0.03,-0.01,-0.022,101.0,106.0,100.0,13.4,1505.3,325.7,-0.7,1.8,2470.396,13.33,0.031,251.6
2020-12-16T02:28:03,42.805,6.029,-0.027,0.0,0.005,103.0,108.0,99.0,13.4,1505.3,324.6,-0.7,1.8,2470.443,13.33,0.026,270.0
2020-12-16T02:31:03,42.805,6.029,-0.011,-0.006,-0.007,103.0,105.0,100.0,13.4,1505.3,324.4,-0.7,1.9,2470.457,13.33,0.012,241.4
2020-12-16T02:34:03,42.805,6.029,-0.017,-0.012,0.04,101.0,105.0,100.0,13.4,1505.3,324.3,-0.7,1.8,2470.394,13.33,0.02,234.8
2020-12-16T02:37:03,42.805,6.029,-0.024,0.003,0.01,101.0,106.0,101.0,13.4,1505.3,325.1,-0.7,1.8,2470.427,13.33,0.024,277.1
2020-12-16T02:40:03,42.805,6.029,-0.027,-0.001,-0.027,102.0,105.0,99.0,13.4,1505.3,325.9,-0.7,1.8,2470.43,13.33,0.027,267.9
2020-12-16T02:43:03,42.805,6.029,-0.039,-0.004,-0.027,101.0,107.0,100.0,13.4,1505.3,328.0,-0.7,1.9,2470.451,13.33,0.039,264.1
2020-12-16T02:46:03,42.805,6.029,-0.013,-0.011,0.02,101.0,107.0,99.0,13.4,1505.3,327.8,-0.7,1.8,2470.389,13.33,0.017,229.8
2020-12-16T02:49:03,42.805,6.029,-0.044,-0.007,-0.007,101.0,106.0,101.0,13.3,1505.3,326.5,-0.7,1.8,2470.415,13.33,0.044,261.0
2020-12-16T02:52:03,42.805,6.029,-0.017,-0.001,0.014,103.0,106.0,101.0,13.3,1505.3,325.6,-0.7,1.8,2470.392,13.33,0.017,266.6
2020-12-16T02:55:03,42.805,6.029,-0.027,-0.007,0.067,102.0,107.0,100.0,13.4,1505.3,325.5,-0.7,1.8,2470.426,13.33,0.027,255.5
2020-12-16T02:58:03,42.805,6.029,-0.019,-0.015,0.017,101.0,107.0,99.0,13.4,1505.3,324.3,-0.7,1.8,2470.465,13.33,0.024,231.7
2020-12-16T03:04:03,42.805,6.029,-0.031,-0.015,0.016,102.0,106.0,100.0,13.4,1505.3,327.2,-0.7,1.8,2470.473,13.31,0.034,244.2
2020-12-16T03:07:03,42.805,6.029,-0.035,-0.005,0.005,101.0,105.0,100.0,13.4,1505.3,323.5,-0.7,1.8,2470.453,13.31,0.035,261.9
2020-12-16T03:10:03,42.805,6.029,-0.003,-0.016,0.051,101.0,105.0,100.0,13.4,1505.3,325.5,-0.7,1.9,2470.479,13.32,0.016,190.6
2020-12-16T03:13:03,42.805,6.029,0.001,0.004,0.061,101.0,104.0,100.0,13.4,1505.3,326.3,-0.7,1.8,2470.465,13.32,0.004,14.0
2020-12-16T03:16:03,42.805,6.029,-0.008,-0.017,0.005,102.0,104.0,99.0,13.4,1505.3,326.7,-0.7,1.8,2470.42,13.33,0.018,205.2
2020-12-16T03:19:03,42.805,6.029,-0.057,-0.026,-0.017,102.0,106.0,100.0,13.4,1505.3,322.8,-0.7,1.8,2470.448,13.33,0.062,245.5
2020-12-16T03:22:03,42.805,6.029,-0.006,-0.004,0.013,102.0,107.0,101.0,13.3,1505.3,327.1,-0.7,1.8,2470.448,13.33,0.007,236.3
2020-12-16T03:25:03,42.805,6.029,-0.015,-0.006,0.037,103.0,106.0,101.0,13.4,1505.3,324.8,-0.7,1.8,2470.442,13.33,0.016,248.2
2020-12-16T03:28:03,42.805,6.029,-0.02,0.001,-0.003,102.0,106.0,99.0,13.3,1505.3,323.7,-0.7,1.8,2470.453,13.33,0.02,272.9
2020-12-16T03:31:03,42.805,6.029,-0.03,-0.005,-0.019,101.0,106.0,100.0,13.4,1505.3,325.3,-0.7,1.8,2470.468,13.33,0.03,260.5
2020-12-16T03:34:03,42.805,6.029,-0.005,-0.001,0.03,101.0,104.0,101.0,13.4,1505.3,326.1,-0.7,1.8,2470.429,13.33,0.005,258.7
2020-12-16T03:37:03,42.805,6.029,-0.007,0.0,0.03,103.0,104.0,100.0,13.4,1505.3,327.0,-0.7,1.9,2470.451,13.33,0.007,270.0
2020-12-16T03:40:03,42.805,6.029,-0.027,-0.015,-0.002,102.0,106.0,99.0,13.4,1505.3,325.3,-0.7,1.9,2470.431,13.33,0.03,240.9
2020-12-16T03:43:03,42.805,6.029,-0.014,-0.007,0.025,102.0,106.0,100.0,13.3,1505.3,324.4,-0.7,1.8,2470.429,13.33,0.015,243.4
2020-12-16T03:46:03,42.805,6.029,-0.022,-0.006,0.015,102.0,105.0,101.0,13.4,1505.3,325.6,-0.7,1.9,2470.475,13.33,0.022,254.7
2020-12-16T03:49:03,42.805,6.029,-0.028,-0.006,0.005,103.0,105.0,101.0,13.4,1505.3,325.7,-0.7,1.8,2470.46,13.33,0.028,257.9
2020-12-16T03:52:03,42.805,6.029,-0.046,0.011,-0.013,102.0,104.0,102.0,13.4,1505.3,325.2,-0.7,1.8,2470.457,13.33,0.047,283.4
2020-12-16T03:55:03,42.805,6.029,-0.052,-0.017,-0.024,102.0,106.0,100.0,13.3,1505.3,323.1,-0.7,1.8,2470.449,13.33,0.054,251.9
2020-12-16T03:58:03,42.805,6.029,-0.033,-0.026,0.002,101.0,104.0,101.0,13.4,1505.3,326.5,-0.7,1.8,2470.457,13.33,0.042,231.8
2020-12-16T04:04:03,42.805,6.029,-0.028,-0.015,0.017,103.0,106.0,100.0,13.4,1505.3,325.0,-0.8,1.8,2470.489,13.31,0.031,241.8
2020-12-16T04:07:03,42.805,6.029,-0.031,-0.018,0.001,101.0,106.0,101.0,13.3,1505.3,326.1,-0.7,1.8,2470.489,13.31,0.035,239.9
2020-12-16T04:10:03,42.805,6.029,-0.033,-0.013,0.033,102.0,105.0,101.0,13.4,1505.3,325.8,-0.7,1.8,2470.518,13.32,0.035,248.5
2020-12-16T04:13:03,42.805,6.029,-0.052,-0.044,-0.045,103.0,106.0,100.0,13.3,1505.3,325.6,-0.7,1.9,2470.524,13.32,0.068,229.8
2020-12-16T04:16:03,42.805,6.029,-0.057,0.007,-0.022,101.0,105.0,101.0,13.4,1505.3,325.7,-0.7,1.8,2470.485,13.32,0.057,277.0
2020-12-16T04:19:03,42.805,6.029,-0.034,-0.01,0.0,102.0,105.0,100.0,13.4,1505.3,328.1,-0.7,1.8,2470.511,13.32,0.035,253.6
2020-12-16T04:22:03,42.805,6.029,-0.041,0.005,0.008,102.0,105.0,100.0,13.3,1505.3,327.5,-0.7,1.9,2470.494,13.32,0.041,277.0
2020-12-16T04:25:03,42.805,6.029,-0.03,-0.026,-0.006,103.0,104.0,101.0,13.4,1505.3,325.2,-0.7,1.8,2470.492,13.32,0.039,229.1
2020-12-16T04:28:03,42.805,6.029,-0.01,-0.008,0.003,103.0,104.0,100.0,13.4,1505.3,323.8,-0.7,1.8,2470.492,13.33,0.012,231.3
2020-12-16T04:31:03,42.805,6.029,-0.03,-0.01,-0.011,102.0,104.0,100.0,13.3,1505.3,327.2,-0.7,1.8,2470.493,13.33,0.031,251.6
2020-12-16T04:34:03,42.805,6.029,-0.065,-0.012,-0.016,102.0,105.0,100.0,13.4,1505.3,325.4,-0.7,1.8,2470.526,13.33,0.066,259.5
2020-12-16T04:37:03,42.805,6.029,-0.022,-0.036,0.02,102.0,106.0,100.0,13.4,1505.3,326.7,-0.7,1.8,2470.501,13.33,0.042,211.4
2020-12-16T04:40:03,42.805,6.029,-0.044,0.001,0.013,102.0,105.0,100.0,13.4,1505.3,327.0,-0.7,1.8,2470.528,13.33,0.044,271.3
2020-12-16T04:43:03,42.805,6.029,-0.021,-0.009,0.017,104.0,105.0,100.0,13.4,1505.3,323.5,-0.7,1.8,2470.507,13.33,0.022,246.8
2020-12-16T04:46:03,42.805,6.029,-0.032,0.001,0.028,102.0,106.0,100.0,13.3,1505.3,323.2,-0.7,1.8,2470.509,13.33,0.032,271.8
2020-12-16T04:49:03,42.805,6.029,-0.019,-0.02,0.028,101.0,106.0,99.0,13.4,1505.3,324.7,-0.7,1.8,2470.551,13.33,0.027,223.5
2020-12-16T04:52:03,42.805,6.029,-0.014,0.012,0.066,103.0,105.0,100.0,13.4,1505.3,327.5,-0.7,1.8,2470.526,13.33,0.018,310.6
2020-12-16T04:55:03,42.805,6.029,-0.04,-0.011,0.009,102.0,105.0,100.0,13.3,1505.3,326.3,-0.7,1.8,2470.551,13.33,0.041,254.6
2020-12-16T04:58:03,42.805,6.029,-0.035,0.0,0.021,102.0,106.0,100.0,13.4,1505.3,327.4,-0.7,1.8,2470.524,13.33,0.035,270.0
2020-12-16T05:04:03,42.805,6.029,-0.047,-0.016,-0.003,102.0,105.0,101.0,13.4,1505.3,323.3,-0.7,1.8,2470.589,13.31,0.049,251.2
2020-12-16T05:07:03,42.805,6.029,-0.017,0.002,0.061,103.0,104.0,101.0,13.4,1505.3,326.7,-0.7,1.8,2470.559,13.31,0.017,276.7
2020-12-16T05:10:03,42.805,6.029,-0.044,0.0,0.011,103.0,105.0,100.0,13.4,1505.3,326.5,-0.7,1.8,2470.509,13.32,0.044,270.0
2020-12-16T05:13:03,42.805,6.029,0.0,0.013,0.058,103.0,103.0,100.0,13.4,1505.3,325.1,-0.7,1.8,2470.571,13.32,0.013,0.0
2020-12-16T05:16:03,42.805,6.029,-0.035,-0.007,-0.015,101.0,105.0,99.0,13.4,1505.3,324.2,-0.7,1.8,2470.583,13.32,0.035,258.7
2020-12-16T05:19:03,42.805,6.029,-0.041,-0.011,-0.008,102.0,106.0,100.0,13.4,1505.3,326.0,-0.7,1.8,2470.59,13.32,0.042,255.0
2020-12-16T05:22:03,42.805,6.029,-0.057,-0.008,0.0,102.0,105.0,100.0,13.3,1505.3,326.9,-0.7,1.8,2470.572,13.32,0.057,262.0
2020-12-16T05:25:03,42.805,6.029,-0.04,0.001,0.017,103.0,104.0,101.0,13.4,1505.3,325.8,-0.7,1.8,2470.571,13.32,0.04,271.4
2020-12-16T05:28:03,42.805,6.029,-0.02,-0.012,-0.006,102.0,105.0,100.0,13.4,1505.3,326.0,-0.7,1.8,2470.578,13.33,0.023,239.0
2020-12-16T05:31:03,42.805,6.029,-0.055,0.009,0.014,103.0,106.0,101.0,13.4,1505.3,325.7,-0.7,1.8,2470.599,13.33,0.055,279.3
2020-12-16T05:34:03,42.805,6.029,-0.027,-0.014,0.034,102.0,105.0,100.0,13.4,1505.3,327.0,-0.7,1.9,2470.591,13.33,0.03,242.6
2020-12-16T05:37:03,42.805,6.029,-0.029,0.0,0.019,102.0,104.0,99.0,13.4,1505.3,326.5,-0.7,1.8,2470.555,13.33,0.028,270.0
2020-12-16T05:40:03,42.805,6.029,-0.055,-0.012,0.001,102.0,104.0,100.0,13.3,1505.3,326.7,-0.7,1.8,2470.599,13.33,0.056,257.7
2020-12-16T05:43:03,42.805,6.029,-0.052,0.0,0.013,102.0,105.0,99.0,13.4,1505.3,326.4,-0.7,1.8,2470.586,13.33,0.052,270.0
2020-12-16T05:46:03,42.805,6.029,0.007,-0.016,0.039,101.0,105.0,101.0,13.4,1505.3,325.5,-0.7,1.8,2470.593,13.33,0.017,156.4
2020-12-16T05:49:03,42.805,6.029,-0.065,0.0,-0.017,103.0,105.0,100.0,13.4,1505.3,326.9,-0.7,1.8,2470.594,13.33,0.064,270.0
2020-12-16T05:52:03,42.805,6.029,-0.03,-0.002,0.038,102.0,106.0,100.0,13.4,1505.3,326.2,-0.7,1.8,2470.63,13.33,0.03,266.2
2020-12-16T05:55:03,42.805,6.029,-0.019,-0.011,0.005,102.0,105.0,100.0,13.4,1505.3,324.0,-0.7,1.8,2470.651,13.33,0.021,239.9
2020-12-16T05:58:03,42.805,6.029,-0.012,0.016,0.032,102.0,105.0,100.0,13.4,1505.3,328.4,-0.7,1.8,2470.628,13.33,0.02,323.1
2020-12-16T06:04:03,42.805,6.029,-0.058,-0.022,-0.028,102.0,104.0,99.0,13.3,1505.3,324.6,-0.7,1.8,2470.682,13.31,0.062,249.2
2020-12-16T06:07:03,42.805,6.029,-0.032,-0.018,-0.014,102.0,105.0,101.0,13.4,1505.3,322.7,-0.7,1.8,2470.693,13.31,0.036,240.6
2020-12-16T06:10:03,42.805,6.029,-0.033,0.0,0.029,102.0,106.0,99.0,13.4,1505.3,324.4,-0.7,1.8,2470.67,13.32,0.033,270.0
2020-12-16T06:13:03,42.805,6.029,-0.018,-0.007,0.054,103.0,105.0,100.0,13.3,1505.3,324.0,-0.7,1.8,2470.648,13.32,0.019,248.8
2020-12-16T06:16:03,42.805,6.029,-0.017,-0.003,0.058,102.0,105.0,100.0,13.4,1505.3,328.4,-0.7,1.8,2470.687,13.32,0.017,260.0
2020-12-16T06:19:03,42.805,6.029,-0.046,-0.023,-0.015,102.0,105.0,104.0,13.3,1505.3,324.3,-0.7,1.8,2470.633,13.33,0.051,243.4
2020-12-16T06:22:03,42.805,6.029,-0.058,-0.001,-0.016,103.0,105.0,101.0,13.3,1505.3,324.7,-0.7,1.8,2470.656,13.33,0.058,269.0
2020-12-16T06:25:03,42.805,6.029,-0.021,0.0,0.031,102.0,105.0,100.0,13.3,1505.3,327.3,-0.7,1.9,2470.677,13.33,0.021,270.0
2020-12-16T06:28:03,42.805,6.029,-0.005,-0.004,0.061,102.0,105.0,100.0,13.4,1505.3,327.3,-0.7,1.9,2470.669,13.33,0.006,231.3
2020-12-16T06:31:03,42.805,6.029,0.011,0.002,0.053,101.0,105.0,100.0,13.4,1505.3,326.5,-0.7,1.8,2470.668,13.33,0.011,79.7
2020-12-16T06:34:03,42.805,6.029,-0.023,0.003,-0.014,102.0,105.0,101.0,13.3,1505.3,327.4,-0.7,1.8,2470.664,13.33,0.023,277.4
2020-12-16T06:37:03,42.805,6.029,-0.023,-0.016,0.021,101.0,105.0,100.0,13.3,1505.3,325.8,-0.7,1.8,2470.65,13.33,0.028,235.2
2020-12-16T06:40:03,42.805,6.029,-0.018,-0.002,0.022,102.0,105.0,100.0,13.4,1505.3,327.5,-0.7,1.8,2470.648,13.33,0.018,263.7
2020-12-16T06:43:03,42.805,6.029,0.004,-0.007,0.07,102.0,104.0,100.0,13.3,1505.3,323.6,-0.7,1.8,2470.684,13.33,0.008,150.3
2020-12-16T06:46:03,42.805,6.029,-0.039,0.0,0.004,102.0,105.0,101.0,13.4,1505.3,325.5,-0.7,1.8,2470.641,13.33,0.039,270.0
2020-12-16T06:49:03,42.805,6.029,-0.029,-0.001,0.0,102.0,104.0,100.0,13.4,1505.3,327.3,-0.7,1.8,2470.706,13.33,0.029,268.0
2020-12-16T06:52:03,42.805,6.029,0.006,-0.011,0.005,101.0,106.0,100.0,13.4,1505.3,322.7,-0.7,1.8,2470.696,13.33,0.012,151.4
2020-12-16T06:55:03,42.805,6.029,-0.061,-0.029,-0.046,104.0,103.0,99.0,13.4,1505.3,324.3,-0.8,1.8,2470.664,13.33,0.067,244.6
2020-12-16T06:58:03,42.805,6.029,-0.01,0.003,0.027,103.0,104.0,99.0,13.4,1505.3,327.1,-0.7,1.8,2470.646,13.33,0.01,286.7
2020-12-16T07:04:03,42.805,6.029,-0.058,-0.002,-0.02,102.0,105.0,100.0,13.3,1505.3,328.0,-0.7,1.8,2470.739,13.31,0.058,268.0
2020-12-16T07:07:03,42.805,6.029,-0.021,-0.006,0.022,102.0,105.0,99.0,13.4,1505.3,325.3,-0.7,1.8,2470.748,13.31,0.021,254.1
2020-12-16T07:10:03,42.805,6.029,-0.024,-0.007,0.039,101.0,105.0,99.0,13.4,1505.3,325.8,-0.7,1.8,2470.727,13.32,0.025,253.7
2020-12-16T07:13:03,42.805,6.029,-0.065,-0.009,-0.044,102.0,104.0,100.0,13.4,1505.3,324.7,-0.7,1.8,2470.714,13.32,0.065,262.1
2020-12-16T07:16:03,42.805,6.029,-0.051,-0.01,-0.038,101.0,105.0,101.0,13.3,1505.3,326.9,-0.7,1.9,2470.701,13.32,0.051,258.9
2020-12-16T07:19:03,42.805,6.029,-0.025,-0.038,0.002,103.0,105.0,99.0,13.3,1505.3,326.2,-0.7,1.8,2470.671,13.33,0.045,213.3
2020-12-16T07:22:03,42.805,6.029,-0.057,0.007,0.012,103.0,105.0,99.0,13.4,1505.3,326.7,-0.7,1.8,2470.702,13.33,0.057,277.0
2020-12-16T07:25:03,42.805,6.029,-0.044,-0.012,0.017,102.0,105.0,100.0,13.3,1505.3,324.1,-0.7,1.8,2470.721,13.33,0.045,254.7
2020-12-16T07:28:03,42.805,6.029,-0.025,0.0,-0.009,102.0,105.0,101.0,13.4,1505.3,324.3,-0.7,1.8,2470.683,13.33,0.025,270.0
2020-12-16T07:31:03,42.805,6.029,-0.034,-0.031,-0.035,102.0,106.0,100.0,13.4,1505.3,325.1,-0.7,1.8,2470.746,13.33,0.046,227.6
2020-12-16T07:34:03,42.805,6.029,-0.055,0.001,0.01,102.0,105.0,100.0,13.3,1505.3,327.9,-0.7,1.8,2470.736,13.33,0.055,271.0
2020-12-16T07:37:03,42.805,6.029,-0.033,0.016,0.04,102.0,106.0,100.0,13.4,1505.3,328.5,-0.7,1.9,2470.708,13.33,0.036,295.9
2020-12-16T07:40:03,42.805,6.029,0.003,-0.006,0.056,101.0,104.0,100.0,13.4,1505.3,325.3,-0.7,1.8,2470.72,13.33,0.006,153.4
2020-12-16T07:43:03,42.805,6.029,-0.02,-0.002,0.026,101.0,105.0,101.0,13.4,1505.3,327.6,-0.7,1.8,2470.693,13.33,0.02,264.3
2020-12-16T07:46:03,42.805,6.029,-0.036,-0.019,0.009,103.0,106.0,100.0,13.4,1505.3,324.9,-0.7,1.8,2470.693,13.33,0.04,242.2
2020-12-16T07:49:03,42.805,6.029,-0.054,-0.034,-0.019,103.0,104.0,101.0,13.3,1505.3,323.6,-0.7,1.8,2470.706,13.33,0.063,237.8
2020-12-16T07:52:03,42.805,6.029,-0.055,-0.031,0.016,103.0,104.0,99.0,13.4,1505.3,324.6,-0.8,1.8,2470.73,13.33,0.063,240.6
2020-12-16T07:55:03,42.805,6.029,-0.045,-0.005,0.008,103.0,105.0,101.0,13.4,1505.3,325.6,-0.7,1.8,2470.706,13.33,0.045,263.7
2020-12-16T07:58:03,42.805,6.029,-0.029,-0.013,0.018,102.0,106.0,100.0,13.3,1505.3,328.1,-0.7,1.8,2470.749,13.33,0.031,245.9
2020-12-16T08:04:03,42.805,6.029,-0.021,-0.011,0.021,102.0,106.0,100.0,13.4,1505.3,323.1,-0.7,1.8,2470.759,13.31,0.023,242.4
2020-12-16T08:07:03,42.805,6.029,-0.051,0.0,-0.047,102.0,104.0,101.0,13.3,1505.3,325.7,-0.7,1.8,2470.75,13.31,0.051,270.0
2020-12-16T08:10:03,42.805,6.029,-0.036,-0.004,0.023,102.0,106.0,99.0,13.4,1505.3,325.8,-0.7,1.8,2470.747,13.32,0.036,263.7
2020-12-16T08:13:03,42.805,6.029,-0.043,-0.007,-0.032,102.0,105.0,100.0,13.4,1505.3,327.9,-0.7,1.8,2470.708,13.32,0.043,260.8
2020-12-16T08:16:03,42.805,6.029,-0.037,-0.01,-0.001,103.0,105.0,100.0,13.3,1505.3,325.6,-0.7,1.8,2470.719,13.32,0.038,254.9
2020-12-16T08:19:03,42.805,6.029,-0.022,0.001,-0.002,102.0,105.0,101.0,13.4,1505.3,326.2,-0.7,1.8,2470.732,13.33,0.022,272.6
2020-12-16T08:22:03,42.805,6.029,-0.015,0.002,0.027,103.0,104.0,100.0,13.4,1505.3,324.6,-0.7,1.8,2470.708,13.33,0.015,277.6
2020-12-16T08:25:03,42.805,6.029,-0.042,-0.012,0.007,102.0,105.0,100.0,13.3,1505.3,325.9,-0.7,1.8,2470.739,13.33,0.043,254.1
2020-12-16T08:28:03,42.805,6.029,-0.041,-0.003,-0.005,102.0,105.0,100.0,13.3,1505.3,326.6,-0.7,1.8,2470.731,13.33,0.041,265.8
2020-12-16T08:31:03,42.805,6.029,-0.01,-0.02,0.01,102.0,104.0,100.0,13.4,1505.3,327.9,-0.7,1.8,2470.711,13.33,0.022,206.6
2020-12-16T08:34:03,42.805,6.029,-0.062,-0.011,-0.023,102.0,104.0,101.0,13.4,1505.3,327.3,-0.7,1.8,2470.704,13.33,0.062,259.9
2020-12-16T08:37:03,42.805,6.029,-0.039,0.001,0.003,103.0,105.0,99.0,13.3,1505.3,323.5,-0.7,1.8,2470.731,13.33,0.039,271.5
2020-12-16T08:40:03,42.805,6.029,-0.01,-0.004,-0.009,101.0,105.0,99.0,13.3,1505.3,324.2,-0.7,1.9,2470.723,13.33,0.01,248.2
2020-12-16T08:43:03,42.805,6.029,-0.022,0.001,-0.014,102.0,105.0,100.0,13.3,1505.3,326.7,-0.7,1.8,2470.699,13.33,0.022,272.6
2020-12-16T08:46:03,42.805,6.029,-0.07,-0.007,-0.035,101.0,106.0,100.0,13.4,1505.3,325.7,-0.7,1.8,2470.726,13.33,0.07,264.3
2020-12-16T08:49:03,42.805,6.029,-0.037,0.007,0.032,103.0,105.0,99.0,13.4,1505.3,326.7,-0.7,1.9,2470.712,13.33,0.037,280.7
2020-12-16T08:52:03,42.805,6.029,-0.037,0.019,0.005,101.0,106.0,99.0,13.4,1505.3,324.0,-0.7,1.8,2470.71,13.33,0.041,297.2
2020-12-16T08:55:03,42.805,6.029,-0.041,0.006,0.01,102.0,106.0,100.0,13.4,1505.3,325.3,-0.7,1.8,2470.739,13.33,0.041,278.3
2020-12-16T08:58:03,42.805,6.029,-0.031,-0.009,-0.006,102.0,106.0,100.0,13.3,1505.3,324.2,-0.7,1.8,2470.701,13.33,0.032,253.8
2020-12-16T09:04:03,42.805,6.029,-0.055,-0.015,0.011,102.0,105.0,100.0,13.4,1505.3,323.4,-0.7,1.8,2470.792,13.31,0.057,254.7
2020-12-16T09:07:03,42.805,6.029,-0.019,-0.016,0.049,101.0,105.0,99.0,13.3,1505.3,326.4,-0.7,1.9,2470.742,13.31,0.024,229.9
2020-12-16T09:10:03,42.805,6.029,-0.035,0.008,0.005,102.0,104.0,101.0,13.4,1505.3,326.5,-0.7,1.8,2470.699,13.32,0.035,282.9
2020-12-16T09:13:03,42.805,6.029,-0.052,-0.041,-0.029,102.0,105.0,99.0,13.4,1505.3,326.3,-0.7,1.8,2470.735,13.32,0.066,231.7
2020-12-16T09:16:03,42.805,6.029,-0.042,0.016,0.01,102.0,107.0,99.0,13.3,1505.3,326.8,-0.7,1.8,2470.719,13.32,0.044,290.9
2020-12-16T09:19:03,42.805,6.029,-0.086,0.002,-0.015,102.0,105.0,99.0,13.4,1505.3,326.6,-0.7,1.9,2470.708,13.32,0.086,271.3
2020-12-16T09:22:03,42.805,6.029,-0.056,0.01,-0.007,102.0,105.0,101.0,13.4,1505.3,323.3,-0.7,1.9,2470.732,13.33,0.056,280.1
2020-12-16T09:25:03,42.805,6.029,-0.057,-0.017,0.002,103.0,107.0,99.0,13.3,1505.3,328.2,-0.7,1.8,2470.712,13.33,0.059,253.4
2020-12-16T09:28:03,42.805,6.029,0.008,0.004,0.053,102.0,105.0,100.0,13.4,1505.3,324.4,-0.7,1.8,2470.691,13.33,0.008,63.4
2020-12-16T09:31:03,42.805,6.029,-0.092,-0.024,-0.062,102.0,105.0,99.0,13.3,1505.3,323.5,-0.7,1.8,2470.72,13.33,0.095,255.4
2020-12-16T09:34:03,42.805,6.029,-0.022,-0.007,0.024,103.0,104.0,100.0,13.4,1505.3,324.4,-0.7,1.8,2470.725,13.33,0.023,252.4
2020-12-16T09:37:03,42.805,6.029,-0.037,0.002,0.013,104.0,105.0,100.0,13.3,1505.3,327.6,-0.7,1.8,2470.714,13.33,0.037,273.1
2020-12-16T09:40:03,42.805,6.029,-0.031,-0.002,0.036,101.0,106.0,100.0,13.4,1505.3,326.4,-0.7,1.8,2470.745,13.33,0.031,266.3
2020-12-16T09:43:03,42.805,6.029,-0.025,0.009,0.048,103.0,106.0,100.0,13.4,1505.3,326.8,-0.7,1.8,2470.725,13.33,0.026,289.8
2020-12-16T09:46:03,42.805,6.029,-0.064,-0.001,-0.013,102.0,106.0,100.0,13.3,1505.3,326.4,-0.7,1.8,2470.716,13.33,0.064,269.1
2020-12-16T09:49:03,42.805,6.029,-0.052,-0.005,-0.034,102.0,106.0,100.0,13.4,1505.3,326.5,-0.7,1.8,2470.695,13.33,0.052,264.5
2020-12-16T09:52:03,42.805,6.029,-0.064,0.002,-0.006,101.0,105.0,100.0,13.3,1505.3,326.0,-0.7,1.8,2470.712,13.33,0.064,271.8
2020-12-16T09:55:03,42.805,6.029,-0.031,0.021,0.011,102.0,106.0,100.0,13.4,1505.3,327.8,-0.7,1.9,2470.701,13.33,0.037,304.1
2020-12-16T09:58:03,42.805,6.029,-0.05,0.003,0.005,102.0,107.0,99.0,13.4,1505.3,323.5,-0.7,1.8,2470.699,13.33,0.05,273.4